Погода в Гулбарге

Индия     17°19′57″N   76°50′25″E
темп.,
°C
ветер,
м/с
пор.,
м/с
влажн.,
%
обл.,
%
осадки,
мм/ч
давл.,
гПа
погр.,
м
11 мая, вт
вт1123:30+33вюв674338 0.9 1007514
02:30+32зюз344451 0.6 1005460
05:30+31зсз35516 0.6 1006287
08:30+32зсз334565 0.2 1008721
11:30+35ссз4433100 0.2 10081831
14:30+37сз232499 0.2 10051574
17:30+39з56205 0.2 10022762
20:30+35зюз683599 0.0 1004565
12 мая, ср
ср1223:30+33юз5739100 0.0 1005437
02:30+32зюз4846100 0.0 1004378
05:30+30зсз484083 0.1 1005277
08:30+34сз45315 0.0 1007913
11:30+37зсз222486 0.0 10052564
14:30+39з322038 0.0 10023503
17:30+39зсз43194 0.0 10003581
20:30+37з5626100 0.0 1001934
13 мая, чт
чт1323:30+35зюз693532 0.0 1002502
02:30+31сз81235100 0.1 1002707
05:30+29зсз3642100 0.9 1005306
08:30+32зсз662886 0.2 1007933
11:30+36зсз552168 0.2 10051718
14:30+38зсз43206 0.0 10022783
17:30+38зсз44215 0.0 10003033
20:30+37з34232 0.0 1002331
14 мая, пт
пт1423:30+35юз57326 0.0 1003376
02:30+33зсз783692 0.0 1002896
05:30+31з353524 0.2 1003188
08:30+34сз45245 0.0 10051072
11:30+38ссв221681 0.0 10032362
14:30+40юв121524 0.0 9993623
17:30+40ююв321798 0.0 9983702
20:30+35ююв9113483 0.0 1001717
15 мая, сб
сб1523:30+34ю353596 0.4 1003753
02:30+32ююв484396 0.0 1001551
05:30+31ю3645100 0.0 1002654
08:30+34ююв5637100 0.0 10041357
11:30+37юв67315 0.0 10022292
14:30+40юв7923100 0.0 9993822
17:30+38юв8923100 0.0 9983468
20:30+35всв5830100 0.1 1001304